Location: Peebles
(55.6412°N, 3.1714°W)
Time: 07:33:56
(UTC+01:00)

METEOR 2-8 DEB - Pass Details

Date: 09 July 2022
Orbit: 792 x 830 km, 82.5° (Epoch: 08 August)

Event Time Altitude Azimuth Distance (km) Brightness Sun altitude
Rises 00:39:36 0° 256° (WSW) 3,313 ? -11.5°
Reaches altitude 10° 00:43:21 10° 282° (WNW) 2,380 ? -11.6°
Maximum altitude 00:45:55 13° 311° (NW) 2,146 ? -11.7°
Drops below altitude 10° 00:48:29 10° 340° (NNW) 2,378 ? -11.7°
Sets 00:52:15 0° 7° (N) 3,309 ? -11.8°
